This is the latest recevied weather packets stored in our database for station/object KC3QLX. If no packets are shown the sender has not sent any weather packets the latest 10 day(s).
| Time | Temp. | Humidity | Pressure | Rain* | Wind** | Luminosity | Snow |
|---|---|---|---|---|---|---|---|
| 1778081674 | 15.56° C | 99% | 1007.6 hPa | 4.83 mm | - | 88 W/m² | - |
| 1778081371 | 15.56° C | 99% | 1007.2 hPa | 4.32 mm | - | 81 W/m² | - |
| 1778081067 | 15.56° C | 99% | 1007.3 hPa | 4.32 mm | - | 62 W/m² | - |
| 1778080766 | 15.56° C | 99% | 1007.8 hPa | 6.1 mm | - | 65 W/m² | - |
| 1778080463 | 15.56° C | 98% | 1007.9 hPa | 7.87 mm | - | 93 W/m² | - |
| 1778080161 | 15.56° C | 98% | 1008.1 hPa | 9.65 mm | - | 77 W/m² | - |
| 1778079856 | 15.56° C | 98% | 1008.3 hPa | 6.1 mm | - | 69 W/m² | - |
| 1778079554 | 15.56° C | 98% | 1008.3 hPa | 3.05 mm | - | 26 W/m² | - |
| 1778079250 | 15.56° C | 98% | 1008 hPa | 4.83 mm | - | 45 W/m² | - |
| 1778078948 | 15.56° C | 98% | 1007.8 hPa | 4.32 mm | - | 63 W/m² | - |
| 1778078643 | 15.56° C | 97% | 1007.8 hPa | 3.05 mm | - | 120 W/m² | - |
| 1778078342 | 15.56° C | 97% | 1007.6 hPa | 3.05 mm | - | 142 W/m² | - |
| 1778078039 | 15.56° C | 97% | 1007.9 hPa | 3.05 mm | - | 128 W/m² | - |
| 1778077737 | 15.56° C | 97% | 1007.6 hPa | 3.05 mm | - | 118 W/m² | - |
| 1778077435 | 15.56° C | 97% | 1007.8 hPa | 3.05 mm | - | 91 W/m² | - |
| 1778077133 | 15.56° C | 97% | 1007.9 hPa | 3.05 mm | - | 85 W/m² | - |
| 1778076831 | 15.56° C | 97% | 1007.8 hPa | 1.27 mm | - | 89 W/m² | - |
| 1778076529 | 15.56° C | 96% | 1008.1 hPa | 1.78 mm | - | 111 W/m² | - |
| 1778076225 | 15.56° C | 96% | 1008.1 hPa | 3.56 mm | - | 76 W/m² | - |
| 1778075922 | 16.11° C | 96% | 1008.1 hPa | 1.78 mm | - | 81 W/m² | - |
| 1778075619 | 15.56° C | 96% | 1008.1 hPa | 0 mm | - | 68 W/m² | - |
| 1778075315 | 15.56° C | 96% | 1008 hPa | 0 mm | - | 58 W/m² | - |
| 1778075011 | 15.56° C | 95% | 1008 hPa | 1.27 mm | - | 44 W/m² | - |
| 1778074709 | 15.56° C | 96% | 1007.7 hPa | 1.27 mm | - | 57 W/m² | - |
| 1778074405 | 15.56° C | 96% | 1008 hPa | 0 mm | - | 62 W/m² | - |
* Rain latest hour (hover to see other rain measurements)
** Current wind speed in m/s (hover to see current wind gust speed)